TimeCST,TemperatureF,Dew PointF,Humidity,Sea Level PressureIn,VisibilityMPH,Wind Direction,Wind SpeedMPH,Gust SpeedMPH,PrecipitationIn,Events,Conditions,WindDirDegrees,DateUTC
12:14 AM,17.6,15.8,93,30.00,2.5,NNW,12.7,-,N/A,,Mist,330,2013-02-27 06:14:00
12:33 AM,17.6,15.8,93,30.00,2.5,NNW,15.0,-,N/A,,Mist,330,2013-02-27 06:33:00
12:54 AM,17.6,14.0,86,30.00,3.0,NNW,12.7,-,N/A,,Scattered Clouds,330,2013-02-27 06:54:00
1:14 AM,17.6,14.0,86,30.00,3.0,NW,12.7,-,N/A,,Scattered Clouds,320,2013-02-27 07:14:00
1:34 AM,15.8,14.0,93,30.00,3.0,NW,11.5,-,N/A,,Scattered Clouds,320,2013-02-27 07:34:00
1:53 AM,15.8,12.2,86,30.00,3.0,NW,10.4,-,N/A,,Scattered Clouds,310,2013-02-27 07:53:00
2:13 AM,15.8,12.2,86,30.00,5.0,NW,9.2,-,N/A,,Scattered Clouds,310,2013-02-27 08:13:00
2:34 AM,15.8,12.2,86,30.00,7.0,NW,8.1,-,N/A,,Clear,320,2013-02-27 08:34:00
2:53 AM,15.8,12.2,86,30.00,4.0,NW,8.1,-,N/A,,Scattered Clouds,320,2013-02-27 08:53:00
3:13 AM,14.0,10.4,86,30.00,3.0,NW,6.9,-,N/A,,Clear,310,2013-02-27 09:13:00
3:34 AM,14.0,10.4,86,30.00,5.0,NW,8.1,-,N/A,,Clear,310,2013-02-27 09:34:00
3:53 AM,14.0,10.4,86,30.00,7.0,NW,9.2,-,N/A,,Clear,320,2013-02-27 09:53:00
4:13 AM,14.0,10.4,86,30.00,10.0,NNW,11.5,-,N/A,,Clear,330,2013-02-27 10:13:00
4:34 AM,14.0,10.4,86,30.00,10.0,NNW,12.7,-,N/A,,Clear,330,2013-02-27 10:34:00
4:53 AM,12.2,10.4,92,30.00,10.0,NNW,11.5,-,N/A,,Clear,330,2013-02-27 10:53:00
5:13 AM,14.0,10.4,86,30.00,10.0,NNW,11.5,-,N/A,,Clear,330,2013-02-27 11:13:00
5:34 AM,12.2,10.4,92,30.00,10.0,NW,9.2,-,N/A,,Clear,320,2013-02-27 11:34:00
5:53 AM,14.0,10.4,86,30.01,10.0,NW,10.4,-,N/A,,Clear,320,2013-02-27 11:53:00
6:14 AM,14.0,10.4,86,30.01,10.0,NNW,12.7,-,N/A,,Clear,330,2013-02-27 12:14:00
6:34 AM,15.8,10.4,79,30.02,10.0,NNW,13.8,-,N/A,,Clear,330,2013-02-27 12:34:00
6:53 AM,15.8,12.2,86,30.02,10.0,NNW,17.3,-,N/A,,Clear,330,2013-02-27 12:53:00
7:14 AM,15.8,12.2,86,30.02,7.0,NNW,18.4,-,N/A,,Clear,330,2013-02-27 13:14:00
7:34 AM,15.8,12.2,86,30.03,2.5,NNW,24.2,-,N/A,,Clear,330,2013-02-27 13:34:00
7:53 AM,15.8,12.2,86,30.03,3.0,NNW,19.6,-,N/A,,Clear,330,2013-02-27 13:53:00
8:14 AM,17.6,12.2,79,30.04,4.0,NNW,20.7,-,N/A,,Clear,330,2013-02-27 14:14:00
8:34 AM,17.6,12.2,79,30.04,5.0,NNW,21.9,-,N/A,,Clear,330,2013-02-27 14:34:00
9:14 AM,17.6,12.2,79,30.05,5.0,NNW,20.7,-,N/A,,Haze,330,2013-02-27 15:14:00
9:34 AM,19.4,14.0,80,30.05,7.0,NW,19.6,-,N/A,,Clear,320,2013-02-27 15:34:00
9:53 AM,19.4,14.0,80,30.05,10.0,NW,17.3,-,N/A,,Clear,320,2013-02-27 15:53:00
10:14 AM,21.2,15.8,80,30.05,10.0,NW,19.6,-,N/A,,Clear,320,2013-02-27 16:14:00
10:34 AM,21.2,15.8,80,30.05,10.0,NNW,18.4,23.0,N/A,,Clear,330,2013-02-27 16:34:00
11:14 AM,23.0,17.6,80,30.05,10.0,NW,18.4,-,N/A,,Clear,320,2013-02-27 17:14:00
11:34 AM,23.0,17.6,80,30.06,10.0,NNW,17.3,-,N/A,,Clear,330,2013-02-27 17:34:00
11:53 AM,23.0,17.6,80,30.06,10.0,NW,17.3,23.0,N/A,,Clear,320,2013-02-27 17:53:00
12:14 PM,24.8,17.6,74,30.06,10.0,NW,20.7,24.2,N/A,,Clear,320,2013-02-27 18:14:00
12:34 PM,24.8,19.4,80,30.05,10.0,NW,17.3,23.0,N/A,,Clear,320,2013-02-27 18:34:00
12:53 PM,24.8,19.4,80,30.05,10.0,NW,18.4,-,N/A,,Clear,320,2013-02-27 18:53:00
1:14 PM,24.8,19.4,80,30.05,10.0,NW,18.4,-,N/A,,Clear,320,2013-02-27 19:14:00
1:34 PM,24.8,19.4,80,30.05,10.0,NNW,21.9,-,N/A,,Clear,330,2013-02-27 19:34:00
1:53 PM,24.8,19.4,80,30.05,7.0,NW,20.7,24.2,N/A,,Clear,320,2013-02-27 19:53:00
2:14 PM,24.8,19.4,80,30.04,10.0,NW,20.7,27.6,N/A,,Clear,320,2013-02-27 20:14:00
2:34 PM,24.8,19.4,80,30.04,10.0,NNW,21.9,-,N/A,,Clear,330,2013-02-27 20:34:00
2:53 PM,24.8,19.4,80,30.05,10.0,NNW,24.2,27.6,N/A,,Clear,330,2013-02-27 20:53:00
3:14 PM,24.8,19.4,80,30.05,10.0,NNW,21.9,28.8,N/A,,Clear,330,2013-02-27 21:14:00
3:34 PM,24.8,19.4,80,30.05,10.0,NW,20.7,-,N/A,,Clear,320,2013-02-27 21:34:00
3:53 PM,24.8,19.4,80,30.06,7.0,NNW,21.9,-,N/A,,Clear,330,2013-02-27 21:53:00
4:14 PM,24.8,19.4,80,30.06,7.0,NNW,24.2,-,N/A,,Clear,330,2013-02-27 22:14:00
4:34 PM,24.8,21.2,86,30.06,10.0,NNW,18.4,26.5,N/A,,Clear,330,2013-02-27 22:34:00
4:53 PM,24.8,21.2,86,30.06,10.0,NNW,18.4,-,N/A,,Clear,330,2013-02-27 22:53:00
5:14 PM,24.8,21.2,86,30.06,10.0,NNW,18.4,-,N/A,,Clear,330,2013-02-27 23:14:00
5:34 PM,24.8,21.2,86,30.06,7.0,NNW,21.9,28.8,N/A,,Clear,330,2013-02-27 23:34:00
5:53 PM,24.8,21.2,86,30.07,7.0,NNW,20.7,28.8,N/A,,Clear,340,2013-02-27 23:53:00
6:14 PM,24.8,21.2,86,30.07,7.0,NNW,21.9,31.1,N/A,,Mostly Cloudy,330,2013-02-28 00:14:00
6:34 PM,24.8,21.2,86,30.08,10.0,NNW,23.0,27.6,N/A,,Overcast,340,2013-02-28 00:34:00
6:53 PM,26.6,21.2,80,30.08,10.0,NNW,23.0,31.1,N/A,,Overcast,330,2013-02-28 00:53:00
7:14 PM,26.6,23.0,86,30.08,5.0,NNW,27.6,33.4,N/A,,Overcast,340,2013-02-28 01:14:00
7:34 PM,26.6,23.0,86,30.09,7.0,NNW,23.0,29.9,N/A,,Overcast,340,2013-02-28 01:34:00
7:53 PM,26.6,23.0,86,30.10,5.0,NNW,26.5,29.9,N/A,,Overcast,340,2013-02-28 01:53:00
8:14 PM,24.8,21.2,86,30.10,4.0,NNW,28.8,34.5,N/A,,Overcast,340,2013-02-28 02:14:00
8:33 PM,24.8,21.2,86,30.10,4.0,NNW,25.3,32.2,N/A,,Overcast,340,2013-02-28 02:33:00
8:53 PM,24.8,21.2,86,30.11,7.0,NNW,24.2,27.6,N/A,,Mostly Cloudy,340,2013-02-28 02:53:00
9:14 PM,24.8,21.2,86,30.11,7.0,NNW,23.0,28.8,N/A,,Mostly Cloudy,340,2013-02-28 03:14:00
9:33 PM,24.8,21.2,86,30.11,7.0,NNW,20.7,-,N/A,,Mostly Cloudy,340,2013-02-28 03:33:00
9:53 PM,24.8,21.2,86,30.11,7.0,NNW,24.2,-,N/A,,Mostly Cloudy,340,2013-02-28 03:53:00
10:14 PM,24.8,21.2,86,30.11,7.0,NNW,23.0,28.8,N/A,,Overcast,340,2013-02-28 04:14:00
10:33 PM,24.8,21.2,86,30.12,10.0,NNW,20.7,-,N/A,,Mostly Cloudy,340,2013-02-28 04:33:00
10:53 PM,23.0,19.4,86,30.12,10.0,NNW,17.3,-,N/A,,Scattered Clouds,340,2013-02-28 04:53:00
11:14 PM,23.0,19.4,86,30.12,10.0,NNW,18.4,-,N/A,,Clear,340,2013-02-28 05:14:00
11:33 PM,21.2,19.4,93,30.13,10.0,NNW,16.1,-,N/A,,Clear,340,2013-02-28 05:33:00